Theta_e
360 359 360 360 361 361 360 360 359 359 357 356 355 353 352 351 350 349 347 345 344 343 343 341 339 338 339 339 339 339 338 337 336 336 338 338 338 338 338 337 337 337
360 360 360 360 361 361 362 361 360 359 358 356 355 353 353 352 350 349 348 346 344 343 343 341 339 338 338 338 339 339 338 337 337 336 338 338 338 337 337 337 336 337
361 360 359 359 360 361 361 361 360 359 358 356 355 354 352 351 349 349 347 345 343 342 342 341 339 338 338 337 338 338 337 338 337 336 337 338 338 337 336 336 335 335
362 361 360 360 360 361 361 361 361 360 358 356 355 353 352 350 348 348 346 345 343 342 342 341 339 338 338 336 337 337 337 337 337 336 337 337 337 337 336 335 335 334
363 362 361 361 360 361 361 361 361 360 358 356 355 353 351 349 348 347 345 344 343 342 341 341 340 338 337 337 338 337 337 336 336 336 336 336 336 336 336 335 335 335
364 363 361 360 360 361 361 361 360 359 357 355 353 351 350 349 347 345 345 344 343 342 342 341 340 338 337 338 338 338 337 336 335 336 336 336 335 335 334 334 334 334
365 363 361 360 360 360 361 361 359 358 356 354 352 350 349 348 346 344 344 343 343 342 342 341 340 339 337 337 338 339 338 337 337 336 336 335 335 334 334 334 334 334
365 363 361 360 360 360 361 360 358 357 355 354 351 349 348 346 345 343 342 343 343 343 342 341 341 340 338 337 338 339 339 338 337 337 336 336 335 335 335 334 334 335
364 363 361 359 359 360 360 359 357 356 355 354 351 349 347 345 344 343 343 344 344 342 342 342 341 341 339 337 338 339 339 337 336 336 336 336 336 336 335 335 334 335
364 362 361 359 359 359 359 358 357 356 355 353 349 347 347 344 342 344 344 345 345 343 342 342 341 341 339 337 339 340 339 338 337 336 336 336 336 336 335 335 334 334
364 362 361 360 359 358 357 356 355 353 353 353 348 345 344 341 340 342 344 345 344 343 343 343 342 340 338 337 339 340 340 338 337 336 336 336 336 336 335 335 334 334
364 362 361 359 357 356 355 354 352 349 350 352 348 345 341 338 336 338 342 344 342 341 343 343 340 339 339 340 340 340 340 339 337 335 335 336 336 335 335 335 334 334
365 363 360 357 356 354 352 350 349 349 349 350 350 347 340 336 336 336 338 342 342 341 341 341 339 339 340 339 338 338 340 340 338 335 334 335 336 335 335 334 334 334
365 362 359 356 354 350 349 349 349 347 347 349 350 349 342 337 337 337 336 339 341 341 339 338 337 337 335 334 334 335 337 338 339 337 335 335 335 335 335 334 334 333
364 360 357 355 351 348 348 349 348 346 346 347 348 347 344 340 339 337 336 337 339 339 337 334 332 330 329 331 332 334 335 336 338 339 336 334 335 335 335 335 335 334
361 357 356 354 350 347 348 348 347 346 346 346 344 343 341 339 339 338 336 336 337 337 335 333 329 326 326 329 332 333 333 334 337 339 337 335 335 335 335 335 335 335
360 357 356 354 349 348 349 349 347 345 345 343 342 341 339 339 340 339 337 337 337 336 334 332 330 326 323 326 331 332 332 333 335 337 337 335 335 336 336 336 336 336
360 357 356 352 349 348 349 349 347 344 343 343 342 341 341 340 341 340 339 338 336 336 334 331 329 326 322 324 330 331 330 331 334 336 337 335 335 335 335 336 336 337
360 358 356 352 349 348 348 348 346 344 344 344 343 343 341 340 340 340 339 338 337 337 334 330 328 325 321 325 330 328 325 328 331 334 336 335 335 335 335 337 339 341
360 358 355 353 350 348 347 347 346 346 346 345 344 343 341 340 339 339 340 339 336 334 332 331 330 326 323 328 331 325 324 329 331 333 335 336 336 336 336 338 341 343
360 358 356 354 351 349 347 347 346 347 347 345 344 343 342 341 339 340 342 339 333 331 333 334 330 325 327 330 327 322 326 332 334 334 335 335 335 336 337 339 341 340
360 359 357 355 352 350 348 347 347 348 346 344 344 343 342 341 340 341 341 338 335 334 333 331 327 325 328 329 324 322 327 331 333 334 333 333 335 336 338 339 338 334
360 359 357 355 353 351 349 348 348 348 346 345 344 342 341 341 341 340 338 336 336 334 329 328 329 327 326 328 326 325 328 329 331 333 333 334 334 335 337 339 336 332
360 359 357 355 354 352 350 349 348 347 346 345 343 342 341 340 339 337 335 334 334 333 330 331 331 325 322 327 329 326 327 329 331 333 334 333 333 333 336 337 334 332
358 358 356 354 354 352 350 349 348 346 344 343 341 339 338 337 334 332 330 331 333 335 334 333 332 327 325 328 328 325 326 330 332 334 333 332 332 333 334 334 333 333
357 356 355 353 353 352 350 349 347 345 343 341 339 337 334 333 330 327 327 330 333 335 336 335 335 334 330 327 324 323 325 329 331 332 332 331 331 330 331 332 333 334
Wind_Speed
22 24 22 21 22 20 20 20 18 18 17 16 15 14 15 15 14 14 15 14 13 13 12 11 10 10 10 9 10 9 9 9 9 9 8 8 8 8 8 7 7 7
24 25 23 21 21 20 20 20 19 18 17 16 15 14 14 14 14 14 14 14 13 13 12 12 11 11 11 11 11 11 10 10 10 9 9 9 9 9 9 9 9 9
25 26 25 23 21 20 20 20 19 18 17 16 15 13 13 13 13 14 14 13 13 13 13 13 12 12 12 12 11 11 11 10 10 9 9 9 9 9 9 9 10 9
26 27 25 22 21 20 20 20 18 17 17 16 14 13 13 13 13 14 14 14 13 13 13 14 13 13 13 12 12 11 11 10 10 10 9 10 10 9 10 10 10 10
28 28 23 21 23 21 20 20 18 17 16 15 14 14 14 14 14 14 14 15 15 14 14 14 14 13 13 13 12 11 10 10 10 10 10 10 10 10 10 10 10 10
28 27 23 23 24 22 22 22 19 18 17 16 16 16 16 16 16 15 15 16 16 16 15 15 15 14 13 13 13 12 10 10 10 10 11 11 11 10 10 10 10 10
26 25 24 25 24 23 23 21 20 20 20 19 20 20 18 19 20 19 18 18 17 16 16 15 15 15 14 13 13 13 11 10 10 11 12 12 11 10 10 10 10 11
25 25 26 26 24 25 24 21 21 24 24 22 22 21 20 20 20 20 20 20 18 16 15 15 16 15 14 13 13 13 12 11 11 12 12 12 11 11 10 10 10 12
25 25 26 26 27 28 25 22 22 25 26 25 22 19 19 21 20 19 20 20 19 18 18 17 16 15 15 14 13 13 12 11 12 12 12 12 12 11 11 10 11 12
26 27 27 28 29 28 25 23 22 21 22 24 21 15 17 22 20 19 21 20 19 21 21 19 17 16 15 14 14 13 12 12 12 12 12 12 12 12 11 11 11 12
29 29 28 30 30 27 24 21 16 13 16 22 23 19 20 24 23 24 25 22 22 23 21 19 19 17 16 15 14 12 12 12 13 13 13 13 13 13 12 12 12 13
30 29 28 30 28 20 15 14 14 15 19 24 28 28 29 28 28 31 29 26 27 26 21 19 19 18 18 16 14 12 12 13 14 14 14 14 14 13 13 13 13 14
28 27 26 24 21 18 19 21 22 24 25 28 32 34 35 33 33 35 33 30 30 27 24 23 21 20 19 17 15 14 14 14 15 15 15 15 14 14 14 14 14 14
24 21 19 18 19 24 28 25 26 30 32 36 40 41 42 39 36 37 36 33 30 28 27 27 24 23 21 19 17 17 17 17 15 15 16 16 15 15 15 15 15 15
19 17 18 20 23 27 27 24 31 38 41 44 46 46 43 37 32 34 35 33 31 30 30 29 27 25 22 19 18 17 17 18 16 17 18 18 17 16 16 17 17 16
18 19 21 23 27 29 28 32 40 43 44 45 45 45 42 35 31 34 35 34 34 33 31 30 29 27 23 20 19 16 16 17 17 20 21 21 20 18 18 18 17 17
18 20 21 22 27 32 34 38 42 43 42 41 38 38 38 33 30 31 33 33 34 33 29 29 30 27 24 23 20 15 14 16 20 23 23 22 21 19 19 18 17 17
19 20 23 24 27 34 38 39 41 40 37 34 30 29 30 27 25 28 32 32 31 29 26 28 30 27 25 24 20 16 15 17 21 24 24 23 21 19 19 19 17 17
19 21 24 26 29 35 38 38 38 37 35 30 25 23 25 26 25 26 30 30 26 24 26 29 29 26 26 24 20 17 18 17 20 24 25 25 23 21 20 19 17 16
20 22 25 27 28 32 36 35 34 34 32 28 22 21 24 26 25 25 26 27 27 27 28 28 26 25 26 23 18 18 19 17 20 24 26 26 24 23 22 20 17 14
20 21 24 25 25 28 31 33 34 33 30 25 22 22 23 24 25 25 24 26 30 29 27 25 24 24 24 20 19 20 17 16 20 24 26 27 27 27 25 20 15 13
20 20 21 22 23 25 26 28 31 31 27 24 23 23 23 22 23 24 24 26 28 26 24 23 22 24 23 19 20 20 16 17 20 22 23 25 27 27 23 19 16 15
19 19 19 20 22 23 24 25 27 26 24 24 25 25 25 24 24 24 26 28 24 20 22 22 21 24 25 20 18 18 16 18 20 19 20 23 25 25 20 15 14 16
17 18 18 19 20 22 23 24 24 24 23 22 21 20 21 23 23 21 23 25 21 17 20 19 18 23 25 20 17 16 15 17 18 18 20 24 26 23 16 12 12 16
15 15 16 17 18 20 21 20 20 22 22 21 19 18 18 21 23 21 20 19 16 15 18 18 17 20 22 20 17 14 14 17 19 18 20 23 22 18 16 15 14 13
12 13 14 14 15 15 16 16 17 18 19 19 18 18 19 21 22 20 19 18 15 15 16 16 16 16 18 17 14 13 16 20 21 20 19 18 16 16 18 18 13 10
Wind_Direction
217 223 224 226 226 225 225 221 218 219 219 221 223 224 223 217 206 201 203 207 212 213 210 208 211 214 214 213 209 210 211 211 215 216 218 224 231 236 240 240 239 245
215 221 222 223 223 224 224 219 216 219 221 224 226 224 219 210 199 197 200 203 208 209 206 205 209 211 211 211 209 209 212 214 217 219 222 230 238 243 247 249 250 251
213 218 220 222 223 223 223 219 215 219 224 226 222 213 207 203 198 198 199 203 207 206 204 206 207 208 209 211 210 211 213 215 219 223 227 235 242 249 253 256 258 259
212 216 217 220 223 223 223 218 211 214 220 221 215 205 201 201 199 200 201 203 206 206 205 207 208 207 208 209 210 213 214 215 221 227 233 238 244 249 255 260 262 264
212 214 212 217 223 222 220 215 207 205 208 206 203 200 200 199 198 203 205 203 205 207 207 208 207 207 207 207 208 212 215 219 224 228 233 240 243 247 252 257 259 261
208 210 209 218 223 219 216 212 203 200 200 199 203 202 199 198 199 203 208 207 207 208 209 208 208 207 207 207 209 212 216 225 231 231 235 240 242 244 246 248 252 254
204 205 208 216 220 218 216 208 200 203 205 205 210 209 199 199 202 202 205 209 210 209 210 210 210 210 210 208 211 215 219 229 239 240 241 243 241 241 242 243 246 249
202 201 205 212 216 217 213 202 199 209 211 210 213 212 204 203 206 204 204 206 206 208 213 215 214 214 215 214 213 217 221 229 240 243 243 243 243 242 241 241 245 250
201 200 203 209 214 215 209 201 202 209 213 213 212 209 206 209 210 208 207 204 202 205 210 214 215 217 221 220 217 219 223 230 239 243 243 242 243 244 243 245 250 254
201 202 203 206 209 210 207 204 202 201 205 213 214 206 208 214 211 208 209 204 202 206 207 207 209 214 222 224 222 222 225 232 239 241 242 243 245 247 248 251 256 257
203 203 200 202 206 208 207 204 197 184 193 213 217 211 214 218 214 212 211 206 207 210 208 205 205 206 215 222 222 224 226 232 238 240 241 243 243 246 249 253 257 258
203 201 199 201 205 205 194 180 180 188 201 214 219 217 219 221 219 216 212 209 212 210 203 206 207 203 207 213 218 224 228 233 237 240 243 244 244 247 250 253 255 255
203 199 197 195 193 186 173 173 190 205 214 220 222 221 220 220 219 216 212 211 212 205 199 205 206 201 203 210 220 229 233 235 238 242 244 246 246 249 253 255 255 253
202 198 189 181 179 174 171 183 208 218 222 223 221 219 219 217 215 212 211 212 209 204 204 207 205 201 205 216 227 236 242 243 242 245 248 250 251 253 255 257 256 252
201 187 173 176 179 170 170 198 221 222 222 220 217 217 217 213 208 208 211 211 207 206 209 209 207 204 206 220 229 234 245 249 249 252 255 255 254 255 257 257 257 256
190 169 164 178 185 180 188 213 223 222 222 219 214 215 215 210 204 206 210 208 207 208 207 207 208 202 200 216 230 234 247 257 261 262 262 260 257 256 257 257 258 260
182 166 167 177 187 194 204 217 223 224 222 219 215 213 212 208 202 202 203 202 203 205 202 203 208 202 197 210 223 228 240 257 268 270 269 265 260 256 255 256 259 263
186 171 170 177 189 204 212 218 224 225 222 219 215 211 208 204 198 198 200 199 199 198 195 199 205 201 198 208 218 219 225 246 266 272 271 268 263 257 256 257 260 262
189 171 172 181 193 207 215 218 222 223 222 218 212 207 206 203 200 200 200 197 195 192 193 200 204 200 200 210 217 214 216 236 261 271 270 266 262 259 259 259 258 256
189 174 176 185 194 204 211 214 218 221 221 218 209 202 203 203 201 199 196 195 195 196 198 200 200 200 208 216 215 209 214 233 255 266 268 265 261 260 260 260 256 251
192 180 182 190 195 201 207 211 217 222 222 217 209 204 203 202 200 197 193 193 197 199 199 196 195 204 216 222 215 212 225 246 261 269 273 271 266 262 261 260 256 258
194 184 187 195 197 201 207 212 217 221 219 213 210 208 204 200 197 195 190 189 193 194 192 191 197 209 221 226 219 219 237 261 271 279 279 273 269 267 264 257 253 265
192 185 192 199 200 203 209 214 219 220 215 210 210 210 208 201 195 190 186 184 183 185 190 194 201 211 218 224 223 226 248 268 277 281 275 272 274 274 268 254 256 272
189 187 195 203 205 208 212 216 220 220 216 213 209 207 204 198 190 182 179 179 177 179 190 199 206 213 219 225 225 232 256 276 281 281 279 280 280 276 267 260 273 283
189 190 198 205 208 211 214 215 216 219 220 217 208 197 189 184 181 176 175 179 183 188 199 206 211 218 225 227 226 235 259 273 277 279 280 280 278 275 276 274 271 271
187 193 201 207 206 205 209 212 213 216 216 208 196 186 179 176 174 174 178 187 194 198 204 209 212 220 228 228 229 247 262 266 269 268 261 257 261 277 288 282 262 242